Location: Utrecht
(52.0907°N, 5.1214°E)
Time: 17:54:32
(UTC+02:00)

DIWATA 2B (PO-101) - Pass Details

Date: 03 July 2022
Orbit: 583 x 599 km, 98.0° (Epoch: 07 August)

Event Time Altitude Azimuth Distance (km) Brightness Sun altitude
Exits shadow 02:19:39 - 128° (SE) 2,454 ? -14.5°
Reaches altitude 10° 02:21:03 10° 120° (ESE) 1,941 ? -14.5°
Maximum altitude 02:24:35 27° 63° (ENE) 1,176 ? -14.4°
Drops below altitude 10° 02:28:08 10° 6° (N) 1,953 ? -14.3°
Sets 02:30:34 0° 354° (N) 2,859 ? -14.2°
